FW7008 Weather Reports


time (UTC)temp
C
wind
direction
speed
KPH
gust
KPH
rain 1hr
cm
rain 24hr
cm
rain mn
cm
humidity
%
barometer
mb
20260506202115 21 234 17.7 20.9 0.00 0.00 0.00 66 1018.3
20260506201613 21 196 11.3 14.5 0.00 0.00 0.00 64 1018.3
20260506201109 21 216 4.8 11.3 0.00 0.00 0.00 64 1018.3
20260506200606 21 215 0.0 0.0 0.00 0.00 0.00 68 1018.3
20260506195559 21 148 0.0 0.0 0.00 0.00 0.00 68 1018.6
20260506195056 21 190 9.7 11.3 0.00 0.00 0.00 68 1018.6
20260506194554 21 266 11.3 14.5 0.00 0.00 0.00 70 1018.3
20260506194049 21 267 17.7 22.5 0.00 0.00 0.00 70 1018.3
20260506193547 21 252 8.0 11.3 0.00 0.00 0.00 69 1018.6
20260506193044 21 235 3.2 12.9 0.00 0.00 0.00 69 1018.3
20260506192541 20 211 11.3 12.9 0.00 0.00 0.00 69 1018.6
20260506192037 20 229 12.9 17.7 0.00 0.00 0.00 72 1018.6
20260506191534 20 279 8.0 9.7 0.00 0.00 0.00 71 1019.0
20260506191029 20 259 11.3 16.1 0.00 0.00 0.00 71 1019.0
20260506190527 21 257 9.7 12.9 0.00 0.00 0.00 70 1019.0
20260506190024 21 185 6.4 8.0 0.00 0.00 0.00 68 1018.6
20260506185521 20 237 8.0 11.3 0.00 0.00 0.00 68 1019.0
20260506185017 20 244 0.0 0.0 0.00 0.00 0.00 70 1019.0
20260506184515 20 198 8.0 11.3 0.00 0.00 0.00 69 1019.0
20260506184012 21 161 4.8 4.8 0.00 0.00 0.00 68 1019.0
20260506183507 20 263 6.4 9.7 0.00 0.00 0.00 71 1019.0
20260506183005 20 289 8.0 11.3 0.00 0.00 0.00 72 1019.3
20260506182501 20 164 6.4 8.0 0.00 0.00 0.00 70 1019.0
20260506181959 20 159 0.0 0.0 0.00 0.00 0.00 72 1019.0
20260506181457 20 272 0.0 0.0 0.00 0.00 0.00 71 1019.3
20260506180948 20 240 9.7 11.3 0.00 0.00 0.00 71 1019.3
20260506180444 20 181 0.0 0.0 0.00 0.00 0.00 72 1019.3
20260506175941 20 77 0.0 0.0 0.00 0.00 0.00 68 1019.3
20260506175438 20 218 0.0 0.0 0.00 0.00 0.00 71 1019.3
20260506174934 20 219 0.0 0.0 0.00 0.00 0.00 68 1019.3
20260506174432 21 181 0.0 0.0 0.00 0.00 0.00 66 1019.3
20260506173929 21 172 0.0 0.0 0.00 0.00 0.00 64 1019.3
20260506173426 20 48 0.0 0.0 0.00 0.00 0.00 67 1019.3
20260506172923 20 25 0.0 0.0 0.00 0.00 0.00 68 1019.3
20260506172420 19 264 0.0 0.0 0.00 0.00 0.00 70 1019.0
20260506171917 18 153 0.0 0.0 0.00 0.00 0.00 71 1019.3
20260506171414 19 111 0.0 0.0 0.00 0.00 0.00 72 1019.3
20260506170912 20 65 0.0 0.0 0.00 0.00 0.00 69 1019.3
20260506170408 20 102 0.0 0.0 0.00 0.00 0.00 69 1019.3
20260506165907 19 115 0.0 0.0 0.00 0.00 0.00 72 1019.0
20260506165405 19 116 0.0 0.0 0.00 0.00 0.00 71 1019.3
20260506164901 19 118 0.0 0.0 0.00 0.00 0.00 71 1019.3
20260506164357 19 146 0.0 0.0 0.00 0.00 0.00 72 1019.3
20260506163855 18 110 0.0 0.0 0.00 0.00 0.00 75 1019.3
20260506163349 18 108 0.0 0.0 0.00 0.00 0.00 74 1019.3
20260506162845 18 107 0.0 0.0 0.00 0.00 0.00 73 1019.3
20260506162343 18 104 0.0 0.0 0.00 0.00 0.00 73 1019.3
20260506161840 18 103 0.0 0.0 0.00 0.00 0.00 72 1019.0
20260506161338 17 105 0.0 0.0 0.00 0.00 0.00 74 1019.0
20260506160835 17 101 0.0 0.0 0.00 0.00 0.00 78 1019.0
20260506160332 17 110 0.0 0.0 0.00 0.00 0.00 79 1019.0
20260506155830 17 111 0.0 0.0 0.00 0.00 0.00 80 1019.3
20260506155326 18 116 0.0 0.0 0.00 0.00 0.00 80 1019.0
20260506153439 17 132 0.0 0.0 0.00 0.00 0.00 81 1019.3
20260506152936 17 115 0.0 0.0 0.00 0.00 0.00 83 1019.3
20260506152433 16 118 0.0 0.0 0.00 0.00 0.00 85 1019.3
20260506151932 16 114 0.0 0.0 0.00 0.00 0.00 84 1019.3
20260506151428 17 116 0.0 0.0 0.00 0.00 0.00 84 1019.3
20260506150926 17 120 0.0 0.0 0.00 0.00 0.00 83 1019.3
20260506150422 17 122 0.0 0.0 0.00 0.00 0.00 85 1019.3
20260506145919 16 124 0.0 0.0 0.00 0.00 0.00 84 1019.3
20260506145415 16 125 0.0 0.0 0.00 0.00 0.00 84 1019.3
20260506144913 16 123 0.0 0.0 0.00 0.00 0.00 84 1019.3
20260506144409 16 122 0.0 0.0 0.00 0.00 0.00 86 1019.3
20260506143908 16 121 0.0 0.0 0.00 0.00 0.00 85 1019.3
20260506143404 16 121 0.0 0.0 0.00 0.00 0.00 86 1019.3
20260506142902 15 122 0.0 0.0 0.00 0.00 0.00 86 1019.3
20260506142400 16 117 0.0 0.0 0.00 0.00 0.00 85 1019.0
20260506141858 15 129 0.0 0.0 0.00 0.00 0.00 89 1019.3
20260506141356 14 130 0.0 0.0 0.00 0.00 0.00 90 1019.0
20260506140854 13 129 0.0 0.0 0.00 0.00 0.00 91 1019.0
20260506140350 13 129 0.0 0.0 0.00 0.00 0.00 92 1019.0
20260506135848 13 128 0.0 0.0 0.00 0.00 0.00 93 1019.3
20260506135344 13 128 0.0 0.0 0.00 0.00 0.00 94 1019.0
20260506134840 12 129 0.0 0.0 0.00 0.00 0.00 95 1019.0
20260506134337 12 132 0.0 0.0 0.00 0.00 0.00 97 1019.0
20260506133834 12 132 0.0 0.0 0.00 0.00 0.00 97 1019.0
20260506133331 12 132 0.0 0.0 0.00 0.00 0.00 97 1019.0
20260506132827 11 132 0.0 0.0 0.00 0.00 0.00 97 1019.0
20260506132325 11 132 0.0 0.0 0.00 0.00 0.00 97 1018.6
20260506131823 11 132 0.0 0.0 0.00 0.00 0.00 97 1018.6
20260506131319 11 132 0.0 0.0 0.00 0.00 0.00 96 1018.3
20260506130816 11 132 0.0 0.0 0.00 0.00 0.00 96 1018.6
20260506130312 11 132 0.0 0.0 0.00 0.00 0.00 96 1018.3
20260506125810 11 132 0.0 0.0 0.00 0.00 0.00 97 1018.3
20260506125308 11 132 0.0 0.0 0.00 0.00 0.00 97 1018.3
20260506124807 11 132 0.0 0.0 0.00 0.00 0.00 96 1018.3
20260506124303 11 132 0.0 0.0 0.00 0.00 0.00 96 1018.3
20260506123801 11 132 0.0 0.0 0.00 0.00 0.00 96 1018.3
20260506123259 11 132 0.0 0.0 0.00 0.00 0.00 96 1018.3
20260506122756 12 132 0.0 0.0 0.00 0.00 0.00 96 1017.9
20260506122253 11 132 0.0 0.0 0.00 0.00 0.00 95 1017.9
20260506121751 12 132 0.0 0.0 0.00 0.00 0.00 96 1017.9
20260506121248 11 132 0.0 0.0 0.00 0.00 0.00 96 1018.3
20260506120745 11 132 0.0 0.0 0.00 0.00 0.00 96 1018.3
20260506120243 11 133 0.0 0.0 0.00 0.00 0.00 96 1017.9
20260506115740 11 135 0.0 0.0 0.00 0.00 0.00 96 1017.9
20260506115238 11 135 0.0 0.0 0.00 0.00 0.00 96 1017.9
20260506114736 11 135 0.0 0.0 0.00 0.00 0.00 96 1018.3
20260506114233 11 135 0.0 0.0 0.00 0.00 0.00 96 1017.9
20260506113731 11 135 0.0 0.0 0.00 0.00 0.00 96 1018.3
20260506113229 11 135 0.0 0.0 0.00 0.00 0.00 96 1017.9
20260506112725 11 135 0.0 0.0 0.00 0.00 0.00 95 1017.9
20260506112223 11 135 0.0 0.0 0.00 0.00 0.00 95 1017.9
20260506111720 11 135 0.0 0.0 0.00 0.00 0.00 95 1018.3
20260506111218 11 135 0.0 0.0 0.00 0.00 0.00 95 1017.9
20260506110714 11 135 0.0 0.0 0.00 0.00 0.00 95 1017.6
20260506110212 12 135 0.0 0.0 0.00 0.00 0.00 95 1017.9
20260506105708 12 135 0.0 0.0 0.00 0.00 0.00 95 1017.9
20260506105205 12 135 0.0 0.0 0.00 0.00 0.00 95 1017.9
20260506104704 12 135 0.0 0.0 0.00 0.00 0.00 94 1017.9
20260506104201 12 135 0.0 0.0 0.00 0.00 0.00 95 1017.9
20260506103658 12 135 0.0 0.0 0.00 0.00 0.00 95 1017.9
20260506103155 12 135 0.0 0.0 0.00 0.00 0.00 95 1017.9
20260506102652 12 135 0.0 0.0 0.00 0.00 0.00 95 1017.9
20260506102144 12 135 0.0 0.0 0.00 0.00 0.00 95 1017.9
20260506101641 12 135 0.0 0.0 0.00 0.00 0.00 95 1017.9
20260506101138 12 135 0.0 0.0 0.00 0.00 0.00 95 1017.9
20260506100636 12 135 0.0 0.0 0.00 0.00 0.00 95 1017.9
20260506100134 12 135 0.0 0.0 0.00 0.00 0.00 95 1017.9
20260506095632 12 135 0.0 0.0 0.00 0.00 0.00 95 1017.9
20260506095129 12 135 0.0 0.0 0.00 0.00 0.00 94 1017.9
20260506094626 12 135 0.0 0.0 0.00 0.00 0.00 93 1017.9
20260506094124 12 135 0.0 0.0 0.00 0.00 0.00 94 1017.9
20260506093622 13 135 0.0 0.0 0.00 0.00 0.00 93 1017.9
20260506093119 13 135 0.0 0.0 0.00 0.00 0.00 93 1017.9
20260506092617 13 135 0.0 0.0 0.00 0.00 0.00 93 1017.9
20260506092114 13 135 0.0 0.0 0.00 0.00 0.00 93 1018.3
20260506091612 13 135 0.0 0.0 0.00 0.00 0.00 92 1018.3
20260506091109 13 136 0.0 0.0 0.00 0.00 0.00 92 1018.3
20260506090607 13 136 0.0 0.0 0.00 0.00 0.00 92 1018.3
20260506085600 13 135 0.0 0.0 0.00 0.00 0.00 92 1018.3
20260506085056 13 135 0.0 0.0 0.00 0.00 0.00 92 1018.3
20260506084553 13 136 0.0 0.0 0.00 0.00 0.00 91 1018.3
20260506084049 13 136 0.0 0.0 0.00 0.00 0.00 91 1018.3
20260506083547 13 136 0.0 0.0 0.00 0.00 0.00 91 1018.3
20260506083044 13 136 0.0 0.0 0.00 0.00 0.00 92 1018.3
20260506082540 13 136 0.0 0.0 0.00 0.00 0.00 91 1018.3
20260506082036 13 136 0.0 0.0 0.00 0.00 0.00 91 1018.3
20260506081535 13 136 0.0 0.0 0.00 0.00 0.00 92 1018.3
20260506081032 13 136 0.0 0.0 0.00 0.00 0.00 92 1018.3
20260506080529 13 136 0.0 0.0 0.00 0.00 0.00 92 1018.3
20260506073513 13 136 0.0 0.0 0.00 0.00 0.00 91 1018.6
20260506073010 13 136 0.0 0.0 0.00 0.00 0.00 91 1018.3
20260506072507 14 136 0.0 0.0 0.00 0.00 0.00 91 1018.3
20260506072005 14 136 0.0 0.0 0.00 0.00 0.00 90 1018.3
20260506071502 14 137 0.0 0.0 0.00 0.00 0.00 90 1018.3
20260506070959 14 137 0.0 0.0 0.00 0.00 0.00 89 1017.9
20260506070456 15 137 0.0 0.0 0.00 0.00 0.00 89 1018.3
20260506062434 15 124 0.0 0.0 0.00 0.00 0.00 87 1018.3
20260506061929 15 117 0.0 0.0 0.00 0.00 0.00 87 1017.9
20260506061426 15 118 0.0 0.0 0.00 0.00 0.00 87 1017.9
20260506060924 15 119 0.0 0.0 0.00 0.00 0.00 87 1017.9
20260506060422 15 120 0.0 0.0 0.00 0.00 0.00 87 1017.9
20260506051354 15 104 0.0 0.0 0.00 0.00 0.00 81 1017.6
20260506050851 15 56 0.0 0.0 0.00 0.00 0.00 82 1017.3
20260506050349 15 55 0.0 0.0 0.00 0.00 0.00 84 1017.3
20260506044839 15 291 0.0 0.0 0.00 0.00 0.00 87 1016.9
20260506044337 15 290 0.0 0.0 0.00 0.00 0.00 87 1017.3
20260506043834 15 290 0.0 0.0 0.00 0.00 0.00 86 1017.3
20260506043331 15 289 0.0 0.0 0.00 0.00 0.00 86 1017.3
20260506042829 15 287 0.0 0.0 0.00 0.00 0.00 86 1016.6
20260506042328 15 278 0.0 0.0 0.00 0.00 0.00 86 1016.9
20260506041827 15 286 0.0 0.0 0.00 0.00 0.00 86 1016.9
20260506041323 15 282 0.0 0.0 0.00 0.00 0.00 86 1016.9
20260506040820 15 281 0.0 0.0 0.00 0.00 0.00 86 1016.6
20260506040317 15 267 0.0 0.0 0.00 0.00 0.00 86 1016.6
20260506035814 15 261 0.0 0.0 0.00 0.00 0.00 86 1016.6
20260506035311 15 241 0.0 0.0 0.00 0.00 0.00 86 1016.6
20260506034809 15 262 0.0 0.0 0.00 0.00 0.00 86 1016.6
20260506034305 15 264 0.0 0.0 0.00 0.00 0.00 86 1016.6
20260506033802 15 241 0.0 0.0 0.00 0.00 0.00 86 1016.2
20260506033259 15 276 0.0 0.0 0.00 0.00 0.00 86 1016.2
20260506032756 15 256 0.0 0.0 0.00 0.00 0.00 86 1016.2
20260506032253 15 256 0.0 0.0 0.00 0.00 0.00 86 1016.2
20260506031749 16 235 0.0 0.0 0.00 0.00 0.00 86 1016.2
20260506031247 16 229 0.0 0.0 0.00 0.00 0.00 85 1016.2
20260506030745 16 201 0.0 0.0 0.00 0.00 0.00 85 1015.9
20260506030243 16 204 0.0 0.0 0.00 0.00 0.00 85 1015.9
20260506025739 16 168 0.0 0.0 0.00 0.00 0.00 84 1015.9
20260506025236 16 167 0.0 0.0 0.00 0.00 0.00 84 1015.6
20260506024733 16 224 0.0 0.0 0.00 0.00 0.00 84 1015.6
20260506024229 16 215 0.0 0.0 0.00 0.00 0.00 83 1015.9
20260506023725 16 219 0.0 0.0 0.00 0.00 0.00 81 1015.6
20260506023223 16 241 0.0 0.0 0.00 0.00 0.00 80 1015.6
20260506022719 16 232 0.0 0.0 0.00 0.00 0.00 80 1015.6
20260506022217 16 228 0.0 0.0 0.00 0.00 0.00 80 1015.6
20260506021715 17 252 0.0 0.0 0.00 0.00 0.00 79 1015.6
20260506021212 17 234 0.0 0.0 0.00 0.00 0.00 77 1015.6
20260506020708 17 170 6.4 9.7 0.00 0.00 0.00 75 1015.2
20260506020206 17 195 8.0 9.7 0.00 0.00 0.00 73 1015.6
20260506015704 18 180 0.0 0.0 0.00 0.00 0.00 69 1015.2
20260506015201 18 203 0.0 0.0 0.00 0.00 0.00 66 1015.6
20260506014658 18 243 0.0 0.0 0.00 0.00 0.00 64 1015.2
20260506014154 18 212 0.0 0.0 0.00 0.00 0.00 63 1014.9
20260506013652 17 234 0.0 0.0 0.00 0.00 0.00 63 1015.2
20260506013149 17 217 0.0 0.0 0.00 0.00 0.00 65 1015.2
20260506012645 17 167 0.0 0.0 0.00 0.00 0.00 63 1015.2
20260506012142 17 241 0.0 0.0 0.00 0.00 0.00 62 1014.9
20260506011639 18 226 0.0 0.0 0.00 0.00 0.00 62 1014.9
20260506011135 18 187 0.0 0.0 0.00 0.00 0.00 60 1015.2
20260506010634 18 167 0.0 0.0 0.00 0.00 0.00 63 1015.2
20260506010131 18 189 0.0 0.0 0.00 0.00 0.00 63 1015.2
20260506005628 18 182 0.0 0.0 0.00 0.00 0.00 63 1015.2
20260506005124 18 160 0.0 0.0 0.00 0.00 0.00 70 1015.2
20260506004621 18 226 0.0 0.0 0.00 0.00 0.00 71 1015.2
20260506004118 18 188 0.0 0.0 0.00 0.00 0.00 71 1014.9
20260506003614 18 261 8.0 17.7 0.00 0.00 0.00 70 1015.2
20260506003110 17 221 9.7 14.5 0.00 0.00 0.00 72 1015.2
20260506002607 18 177 6.4 9.7 0.00 0.00 0.00 73 1015.2
20260506002103 18 247 0.0 0.0 0.00 0.00 0.00 73 1015.2
20260506001559 18 193 0.0 0.0 0.00 0.00 0.00 73 1015.2
20260506001056 18 243 6.4 8.0 0.00 0.00 0.00 72 1015.2
20260506000554 18 216 6.4 8.0 0.00 0.00 0.00 72 1015.2
20260506000051 17 197 0.0 0.0 0.00 0.00 0.00 73 1014.9
20260505235549 17 177 11.3 12.9 0.00 0.00 0.00 75 1015.2
20260505235046 17 237 12.9 16.1 0.00 0.00 0.00 72 1015.2
20260505234543 17 189 4.8 11.3 0.00 0.00 0.00 72 1015.2
20260505234039 18 223 11.3 16.1 0.00 0.00 0.00 69 1015.2
20260505233537 18 173 11.3 11.3 0.00 0.00 0.00 71 1015.2
20260505233034 18 245 9.7 14.5 0.00 0.00 0.00 71 1015.6
20260505232532 18 182 6.4 14.5 0.00 0.00 0.00 69 1015.2
20260505232029 19 182 9.7 11.3 0.00 0.00 0.00 66 1015.6
20260505231526 19 176 8.0 9.7 0.00 0.00 0.00 64 1014.9
20260505231025 19 228 8.0 9.7 0.00 0.00 0.00 66 1014.9
20260505230522 18 229 14.5 17.7 0.00 0.00 0.00 65 1015.2
20260505230018 18 223 12.9 22.5 0.00 0.00 0.00 63 1015.2
20260505225515 18 218 6.4 12.9 0.00 0.00 0.00 64 1015.2
20260505225011 18 193 6.4 12.9 0.00 0.00 0.00 61 1015.6
20260505224508 18 266 12.9 16.1 0.00 0.00 0.00 60 1015.2
20260505224005 19 192 11.3 12.9 0.00 0.00 0.00 57 1015.2
20260505223502 18 190 4.8 8.0 0.00 0.00 0.00 60 1015.2
20260505222958 19 186 6.4 9.7 0.00 0.00 0.00 57 1015.6
20260505222454 19 252 0.0 0.0 0.00 0.00 0.00 56 1015.6
20260505221950 19 235 8.0 11.3 0.00 0.00 0.00 56 1015.6
20260505221448 19 243 12.9 14.5 0.00 0.00 0.00 58 1015.6
20260505220945 19 193 8.0 9.7 0.00 0.00 0.00 56 1015.6
20260505220442 19 164 6.4 11.3 0.00 0.00 0.00 55 1015.6
20260505215940 18 241 14.5 16.1 0.00 0.00 0.00 57 1015.6
20260505215438 18 236 6.4 8.0 0.00 0.00 0.00 61 1015.6
20260505214935 18 204 8.0 11.3 0.00 0.00 0.00 64 1015.6
20260505214433 18 226 11.3 14.5 0.00 0.00 0.00 64 1015.6
20260505213930 18 209 11.3 14.5 0.00 0.00 0.00 66 1015.6
20260505213427 19 183 4.8 8.0 0.00 0.00 0.00 65 1015.9
20260505212923 18 250 12.9 16.1 0.00 0.00 0.00 64 1015.6
20260505212420 19 258 11.3 14.5 0.00 0.00 0.00 65 1015.9
20260505211917 19 162 11.3 14.5 0.00 0.00 0.00 64 1015.9
20260505211415 18 266 4.8 14.5 0.00 0.00 0.00 63 1015.9
20260505210910 18 236 12.9 14.5 0.00 0.00 0.00 62 1015.9
20260505210408 19 207 12.9 14.5 0.00 0.00 0.00 62 1015.9
20260505205905 18 203 11.3 12.9 0.00 0.00 0.00 63 1015.9
20260505205403 18 227 8.0 9.7 0.00 0.00 0.00 61 1015.9
20260505204900 18 217 16.1 16.1 0.00 0.00 0.00 65 1015.9
20260505204357 19 198 12.9 17.7 0.00 0.00 0.00 62 1015.9
20260505203855 19 238 8.0 11.3 0.00 0.00 0.00 60 1015.9
20260505203351 18 256 9.7 14.5 0.00 0.00 0.00 64 1015.9
20260505202847 18 240 11.3 16.1 0.00 0.00 0.00 61 1015.6
20260505202343 18 239 16.1 22.5 0.00 0.00 0.00 59 1015.9